Temp
62 62 62 62 61 61 61 61 60 60 60 60 60 60 59 59 58 66 64 76 73 66 67 81 82 82 82 80 81 81 72 69 69 69 68 75 72 77 77 75 78 77 78 79 76
62 62 62 61 61 60 60 60 60 60 60 60 59 59 59 58 62 65 75 67 66 66 83 81 78 81 78 78 79 76 71 71 78 76 71 72 76 71 69 73 71 74 78 77 78
61 61 61 61 61 60 60 60 60 60 60 60 59 59 58 59 63 78 69 66 66 70 87 85 84 80 75 78 77 76 72 76 78 79 79 76 76 81 74 73 75 72 74 72 74
61 61 61 61 60 59 59 59 59 60 60 59 59 59 58 62 65 86 68 66 66 81 84 82 80 74 73 71 78 71 75 75 78 79 79 77 79 76 79 79 82 79 77 72 72
59 59 60 60 60 59 58 58 59 59 59 59 59 58 62 65 72 82 66 68 78 82 81 80 77 76 71 74 75 72 75 76 77 79 80 78 77 77 76 80 83 80 77 75 75
59 59 59 59 59 59 58 58 58 58 58 58 57 57 61 64 86 84 81 77 81 82 82 82 79 81 76 74 74 76 75 75 76 76 77 76 74 79 75 79 79 77 78 78 77
60 59 58 58 58 58 58 58 57 57 57 57 57 61 60 72 86 85 83 82 84 84 81 84 83 78 78 72 76 76 71 74 74 77 74 81 72 68 71 75 77 77 78 79 79
59 58 57 57 57 57 57 57 57 57 57 57 57 59 66 83 88 82 85 82 83 86 84 83 83 78 75 77 74 72 73 66 71 76 73 74 65 69 71 74 75 76 76 76 77
59 58 57 56 56 56 57 56 56 57 57 56 59 59 70 80 79 86 85 81 80 80 81 81 80 74 74 70 67 68 63 65 66 73 74 75 67 68 71 74 74 75 76 76 75
59 57 57 56 56 56 56 56 56 56 58 62 64 59 75 77 83 84 89 84 79 76 74 74 75 72 73 70 59 62 63 67 66 68 74 71 66 68 70 73 73 75 75 75 75
58 57 57 56 56 55 57 62 59 58 58 69 70 69 75 83 84 84 87 83 81 76 69 71 68 65 69 71 71 70 68 66 67 66 68 66 67 67 69 71 71 73 74 74 74
57 57 56 56 56 55 60 63 71 72 67 71 70 70 76 78 74 82 87 78 76 70 71 66 64 68 71 70 69 69 66 64 63 64 67 67 64 66 67 68 71 72 73 73 71
57 56 56 55 55 56 61 65 76 75 67 69 72 73 76 78 75 77 83 76 73 70 70 67 67 68 69 68 66 65 65 63 64 63 66 67 63 64 64 66 67 70 72 72 72
56 56 55 54 55 64 62 73 75 71 63 65 70 75 77 78 72 80 82 79 71 67 68 67 68 68 68 65 66 61 66 66 62 62 58 66 57 62 63 63 65 66 69 70 71
55 55 54 55 65 64 72 76 74 71 43 68 71 83 78 74 75 74 79 78 68 67 68 62 65 66 65 64 66 63 66 66 65 64 61 60 59 61 64 61 63 66 68 69 70
55 55 54 56 63 69 72 74 72 56 44 62 72 70 70 71 71 75 75 78 75 68 70 66 70 70 67 66 67 67 65 64 64 63 52 60 59 62 61 65 65 67 68 68 70
55 55 55 66 68 70 71 70 56 48 63 61 64 69 69 66 66 69 68 67 66 59 60 65 65 69 70 65 66 67 63 53 50 49 48 57 56 63 68 68 70 67 68 69 69
54 54 56 66 72 68 70 64 48 58 60 66 67 68 64 66 64 65 65 63 66 66 63 60 53 64 67 66 64 64 64 54 41 44 53 56 53 65 67 71 73 72 71 70 69
54 55 55 65 64 65 66 51 54 60 66 63 65 61 61 64 65 64 63 64 64 66 61 58 56 66 65 67 67 60 57 63 51 48 49 57 61 66 65 66 69 70 70 69 70
57 55 64 70 68 65 60 54 61 65 66 66 59 63 58 62 62 63 62 63 62 65 67 63 54 62 63 67 66 64 65 54 56 41 40 54 54 59 59 61 66 67 67 69 70
63 61 67 70 69 64 56 60 63 68 67 64 63 60 63 60 63 62 62 62 64 64 68 66 61 57 61 61 61 59 59 56 58 52 46 44 56 64 63 65 64 67 68 69 68
63 57 66 68 61 65 60 64 58 66 67 66 67 66 63 63 61 61 60 63 63 66 62 63 61 52 58 62 64 64 61 61 51 47 48 46 54 64 64 65 68 68 69 70 68
61 63 66 65 54 53 61 64 65 65 66 65 64 66 65 62 57 60 61 60 61 63 63 63 58 49 52 58 62 60 61 61 56 52 46 43 54 64 64 64 67 68 69 67 65
65 55 61 65 66 63 60 61 62 65 65 66 63 65 62 59 60 57 57 59 60 61 49 58 58 56 50 56 60 54 58 60 60 49 51 51 59 63 64 64 66 65 68 66 63
65 61 66 51 57 63 65 64 62 60 66 67 63 65 63 55 56 56 59 57 59 52 59 62 54 54 54 54 55 57 58 57 57 58 51 58 58 65 67 68 68 66 64 63 61
61 61 62 63 61 62 57 61 62 63 64 63 64 63 64 58 62 57 60 60 60 59 59 56 52 50 48 51 52 51 58 59 59 60 58 60 58 70 69 67 65 62 61 60 59
66 65 68 48 60 60 58 62 63 65 60 64 67 63 60 60 63 64 62 63 63 59 55 54 48 47 46 47 47 41 51 58 59 61 59 54 63 65 61 61 63 62 61 60 60
MSLP
1020.91 1020.64 1020.48 1020.50 1020.36 1020.19 1019.99 1019.80 1019.67 1019.37 1019.38 1019.38 1019.19 1018.93 1018.73 1018.36 1017.82 1016.91 1015.29 1012.86 1013.04 1013.15 1013.48 1012.98 1013.02 1012.84 1012.50 1011.91 1011.69 1011.23 1009.59 1008.13 1008.65 1009.19 1010.66 1011.46 1011.83 1012.53 1013.15 1012.66 1012.73 1013.20 1013.28 1014.28 1015.71
1020.17 1020.38 1020.26 1020.07 1020.12 1020.03 1019.69 1019.62 1019.41 1019.03 1019.31 1019.16 1019.06 1018.80 1018.46 1018.18 1017.05 1014.84 1012.04 1012.53 1012.92 1012.84 1012.54 1012.00 1011.91 1012.13 1011.56 1011.41 1011.23 1010.41 1009.12 1008.09 1008.51 1009.56 1010.27 1011.02 1011.18 1012.95 1012.98 1012.46 1013.05 1013.20 1014.08 1015.35 1015.90
1020.03 1019.88 1020.06 1019.95 1019.85 1019.73 1019.48 1019.42 1019.31 1018.89 1019.12 1018.98 1018.84 1018.62 1018.27 1017.89 1015.61 1011.22 1011.12 1011.85 1012.68 1012.61 1011.72 1011.49 1011.56 1011.54 1011.07 1010.97 1010.61 1010.07 1008.74 1008.91 1009.07 1009.44 1009.72 1010.25 1010.48 1010.98 1011.23 1011.50 1011.95 1012.86 1014.10 1015.48 1016.00
1019.90 1019.65 1019.83 1019.67 1019.68 1019.54 1019.26 1019.32 1019.04 1018.84 1018.89 1018.90 1018.63 1018.48 1018.14 1017.23 1013.28 1010.54 1010.97 1011.44 1012.33 1012.14 1011.67 1011.36 1011.27 1011.07 1010.54 1010.50 1010.22 1009.84 1009.33 1009.56 1009.45 1009.58 1009.68 1009.68 1010.34 1010.61 1010.59 1011.14 1011.59 1012.87 1014.35 1015.70 1016.26
1019.84 1019.47 1019.55 1019.51 1019.37 1019.36 1019.05 1019.14 1018.76 1018.82 1018.90 1018.80 1018.55 1018.41 1017.56 1015.36 1011.83 1010.90 1011.44 1011.90 1012.07 1011.95 1011.22 1010.95 1010.70 1010.48 1010.12 1010.08 1010.24 1009.77 1009.30 1009.72 1009.90 1009.71 1009.72 1010.36 1010.27 1010.45 1011.55 1011.91 1012.25 1013.42 1014.64 1015.39 1016.34
1019.52 1019.13 1019.36 1019.12 1019.24 1019.01 1018.86 1018.86 1018.60 1018.70 1018.91 1018.88 1018.69 1018.49 1016.89 1013.44 1010.64 1010.99 1011.31 1011.78 1011.51 1011.53 1011.14 1010.89 1010.42 1010.34 1009.87 1009.95 1009.77 1009.50 1009.53 1009.58 1009.67 1009.91 1010.40 1010.32 1010.96 1010.95 1012.53 1012.63 1012.96 1013.82 1014.44 1015.18 1015.82
1019.02 1018.93 1019.04 1018.73 1018.89 1018.80 1018.72 1018.59 1018.47 1018.66 1018.89 1018.88 1018.61 1017.96 1016.08 1011.95 1010.58 1011.01 1011.15 1011.08 1011.20 1010.84 1010.59 1010.83 1010.88 1010.62 1010.11 1009.95 1010.16 1009.77 1009.54 1009.83 1010.03 1010.20 1010.42 1010.32 1011.16 1012.30 1013.29 1013.35 1013.36 1013.77 1014.39 1015.04 1015.58
1018.64 1018.75 1018.77 1018.63 1018.59 1018.49 1018.61 1018.43 1018.48 1018.71 1018.93 1018.82 1018.56 1017.72 1013.64 1010.90 1010.65 1010.83 1010.66 1010.66 1011.07 1011.07 1011.07 1011.25 1011.23 1010.69 1010.23 1010.12 1009.92 1009.45 1009.24 1009.12 1010.29 1010.23 1010.95 1010.95 1011.28 1012.91 1013.54 1013.51 1013.60 1014.07 1014.75 1015.42 1015.98
1018.29 1018.58 1018.47 1018.41 1018.41 1018.27 1018.53 1018.46 1018.54 1018.88 1018.89 1018.68 1018.05 1016.78 1011.88 1010.52 1010.36 1009.74 1010.12 1009.83 1010.58 1011.16 1011.31 1011.15 1011.11 1010.61 1010.40 1009.63 1009.29 1009.36 1008.52 1009.02 1010.18 1010.73 1010.64 1010.64 1011.46 1013.24 1013.81 1013.74 1013.86 1014.37 1014.84 1015.47 1016.35
1018.11 1018.29 1018.24 1018.16 1018.11 1018.23 1018.44 1018.53 1018.81 1019.08 1018.62 1018.03 1017.01 1015.76 1011.33 1009.88 1009.52 1009.59 1009.46 1009.70 1009.83 1010.70 1011.07 1010.92 1010.35 1009.78 1009.41 1008.94 1008.11 1008.41 1008.72 1009.18 1009.88 1011.15 1010.87 1011.10 1012.12 1013.22 1013.99 1014.04 1014.20 1014.48 1014.96 1015.51 1016.15
1017.71 1017.91 1017.87 1017.68 1018.09 1018.13 1018.36 1018.11 1018.64 1017.84 1016.81 1014.20 1013.36 1012.34 1010.55 1009.87 1009.57 1009.06 1008.93 1009.12 1009.56 1009.82 1009.59 1010.24 1009.62 1008.93 1008.70 1008.79 1008.55 1008.50 1008.78 1009.42 1010.67 1011.80 1011.56 1011.87 1012.49 1013.35 1014.11 1014.33 1014.55 1014.64 1015.07 1015.56 1016.22
1017.34 1017.56 1017.59 1017.47 1017.98 1018.16 1017.80 1016.22 1014.10 1013.68 1013.01 1012.57 1012.45 1011.69 1010.60 1010.24 1009.36 1008.69 1008.79 1008.77 1008.74 1008.67 1009.43 1009.97 1009.41 1009.54 1009.39 1009.30 1008.99 1008.95 1009.25 1010.14 1011.60 1012.19 1011.83 1012.00 1012.58 1013.48 1014.06 1014.47 1014.61 1014.70 1015.03 1015.57 1016.52
1017.04 1017.19 1017.18 1017.32 1017.96 1018.20 1016.84 1015.00 1013.64 1013.21 1012.20 1011.62 1011.20 1010.39 1009.67 1009.76 1008.80 1008.47 1008.52 1008.39 1008.65 1008.76 1009.06 1008.61 1009.64 1009.89 1009.42 1009.36 1009.32 1009.61 1009.42 1010.32 1010.68 1011.97 1012.07 1011.87 1012.23 1013.07 1014.26 1014.73 1015.16 1015.23 1015.30 1015.78 1016.28
1016.53 1017.00 1016.85 1017.31 1018.17 1016.17 1015.41 1013.80 1013.84 1013.93 1011.88 1010.85 1010.05 1009.19 1009.39 1009.21 1008.92 1008.97 1008.98 1008.71 1009.06 1009.07 1009.29 1009.44 1010.03 1009.77 1009.50 1009.64 1009.90 1009.85 1010.48 1010.55 1010.99 1011.08 1010.86 1011.82 1010.67 1012.17 1013.42 1014.25 1014.79 1015.31 1015.59 1016.05 1016.64
1015.94 1016.54 1016.68 1016.47 1015.57 1015.05 1013.68 1013.30 1013.37 1013.24 1011.34 1010.13 1009.23 1008.91 1008.97 1009.00 1008.81 1008.93 1009.36 1008.94 1008.71 1009.35 1009.66 1009.99 1009.91 1009.89 1009.75 1010.11 1010.37 1010.58 1010.87 1010.76 1011.00 1010.75 1011.06 1011.21 1011.13 1011.42 1012.83 1013.36 1014.12 1015.01 1015.59 1016.25 1016.96
1015.35 1015.96 1016.64 1017.19 1015.59 1014.10 1013.79 1013.30 1012.83 1012.23 1010.35 1009.46 1008.79 1008.60 1008.68 1008.90 1009.06 1009.01 1009.00 1009.15 1009.72 1009.51 1009.56 1010.06 1010.56 1010.38 1010.52 1010.95 1010.76 1011.36 1011.15 1011.23 1011.29 1011.11 1010.74 1010.42 1010.77 1009.91 1011.25 1011.77 1013.27 1014.56 1015.47 1016.29 1017.05
1015.00 1015.37 1016.00 1015.36 1013.71 1013.92 1013.51 1012.71 1011.83 1010.64 1010.17 1009.19 1008.57 1008.53 1008.42 1008.81 1009.05 1008.92 1008.88 1009.10 1008.98 1009.41 1009.53 1010.14 1010.50 1010.95 1010.92 1010.96 1011.51 1011.20 1010.68 1010.68 1010.84 1010.93 1010.61 1011.26 1010.88 1009.64 1010.37 1011.30 1012.16 1013.69 1014.93 1016.11 1017.09
1014.73 1015.29 1015.31 1014.51 1013.93 1014.06 1013.24 1011.82 1010.50 1009.62 1009.16 1009.03 1008.61 1008.61 1008.48 1008.81 1009.23 1009.29 1009.24 1009.33 1009.86 1009.50 1009.36 1009.41 1010.46 1010.78 1011.14 1010.86 1010.55 1010.85 1010.74 1010.68 1011.03 1011.40 1010.80 1011.69 1010.21 1009.55 1011.05 1011.43 1012.08 1013.43 1014.61 1015.75 1016.80
1014.55 1015.47 1015.15 1013.35 1014.17 1014.32 1012.70 1010.84 1009.40 1009.01 1008.62 1008.59 1008.69 1008.43 1008.66 1009.00 1008.95 1009.23 1009.43 1009.47 1009.93 1009.94 1009.31 1009.76 1010.43 1011.30 1011.56 1011.40 1011.40 1011.40 1011.47 1011.87 1012.11 1012.90 1012.07 1010.79 1010.29 1010.59 1011.42 1011.81 1012.27 1013.08 1014.25 1015.33 1016.33
1013.74 1014.51 1012.56 1012.04 1012.94 1013.55 1012.09 1009.90 1009.17 1008.97 1008.72 1008.48 1007.99 1008.16 1008.21 1008.72 1008.99 1009.20 1009.58 1010.20 1010.28 1010.48 1010.36 1010.32 1010.70 1011.44 1011.73 1011.68 1011.89 1011.42 1011.93 1012.14 1012.24 1012.36 1011.80 1010.58 1010.50 1010.00 1011.04 1011.54 1012.11 1012.74 1013.82 1014.95 1015.99
1012.10 1012.44 1011.06 1011.52 1012.27 1011.76 1010.12 1009.24 1008.98 1008.75 1008.68 1008.37 1008.00 1008.25 1008.18 1008.69 1008.90 1009.21 1009.63 1010.55 1010.72 1010.82 1010.76 1010.67 1010.75 1011.76 1011.94 1011.34 1010.93 1011.96 1011.80 1012.39 1012.40 1012.87 1012.20 1011.42 1010.01 1010.76 1011.01 1011.34 1011.99 1012.69 1013.67 1014.56 1015.79
1011.02 1010.40 1010.91 1011.17 1010.87 1009.73 1009.01 1008.81 1008.76 1008.41 1008.67 1008.37 1008.28 1008.18 1008.36 1008.73 1009.01 1009.40 1009.84 1010.45 1011.20 1011.12 1010.99 1011.52 1011.35 1011.45 1011.46 1012.02 1012.06 1011.70 1011.47 1011.87 1012.13 1012.91 1013.20 1012.73 1011.00 1011.36 1011.63 1011.81 1012.02 1012.61 1013.59 1014.50 1015.99
1009.60 1009.22 1010.86 1010.58 1008.96 1008.86 1008.98 1008.51 1008.46 1008.21 1008.15 1008.19 1008.11 1008.26 1008.77 1008.93 1009.49 1009.93 1010.60 1011.69 1011.87 1011.75 1011.64 1011.84 1011.76 1011.69 1011.95 1012.42 1012.31 1011.82 1011.87 1012.07 1012.56 1012.87 1012.59 1012.26 1010.78 1011.28 1011.60 1011.88 1012.25 1012.64 1013.43 1014.88 1016.12
1008.26 1008.18 1009.29 1009.62 1008.56 1007.90 1007.97 1008.00 1008.15 1008.21 1008.08 1008.20 1008.35 1008.60 1008.89 1009.32 1009.87 1010.26 1011.01 1012.01 1012.43 1012.48 1012.65 1012.39 1012.07 1011.67 1011.56 1011.43 1011.57 1011.76 1011.77 1011.94 1011.81 1012.14 1011.66 1011.21 1010.25 1010.59 1010.96 1011.32 1011.91 1012.65 1013.49 1014.84 1015.97
1007.12 1006.14 1006.45 1007.25 1007.81 1007.38 1007.52 1007.63 1007.68 1007.82 1008.15 1008.23 1008.28 1008.34 1008.61 1009.38 1009.93 1010.38 1011.13 1012.11 1012.73 1013.09 1013.08 1012.80 1012.56 1012.86 1012.88 1012.90 1012.64 1012.11 1011.72 1011.76 1011.56 1011.32 1011.17 1010.08 1010.00 1009.78 1010.28 1010.83 1011.45 1012.65 1013.76 1014.77 1015.77
1006.23 1005.94 1006.82 1006.56 1007.39 1007.35 1007.34 1007.33 1007.37 1007.79 1007.92 1007.99 1008.09 1008.66 1009.12 1009.33 1009.42 1009.90 1010.66 1011.44 1011.79 1013.13 1013.15 1013.60 1013.72 1013.99 1013.85 1013.81 1013.43 1012.71 1012.01 1011.54 1011.34 1011.02 1010.76 1010.12 1009.60 1009.75 1010.50 1011.33 1011.84 1012.84 1013.77 1014.53 1015.40
1006.47 1006.02 1005.35 1007.34 1007.05 1007.09 1007.13 1007.17 1007.34 1007.72 1008.75 1008.67 1008.42 1009.04 1009.81 1010.37 1010.56 1010.76 1011.47 1011.73 1012.03 1012.59 1013.42 1013.97 1014.40 1014.78 1014.61 1014.67 1014.13 1013.35 1011.62 1011.10 1010.74 1010.40 1010.23 1009.69 1009.50 1010.24 1011.00 1011.48 1011.84 1012.60 1013.52 1014.20 1014.92
Wind_Speed
10 10 10 12 11 11 12 11 10 8 9 10 11 11 11 13 15 9 12 9 8 7 11 12 11 10 7 7 4 3 7 7 10 14 14 15 6 5 3 10 5 3 2 13 17
9 11 12 11 12 12 11 12 10 7 9 9 9 10 10 11 15 15 12 6 5 14 13 15 14 12 7 8 6 8 7 3 9 15 12 1 4 15 9 13 5 8 11 18 18
10 10 12 12 12 13 11 11 10 7 9 8 8 10 8 12 8 4 4 16 17 12 8 6 10 9 8 7 8 7 6 8 12 10 13 15 16 8 12 11 6 15 21 16 16
11 8 11 12 14 12 10 10 9 7 7 8 7 9 9 5 2 6 5 17 17 17 10 11 11 9 8 10 9 9 2 2 13 12 11 12 7 8 4 10 3 19 21 17 15
10 9 10 13 13 11 9 9 7 7 6 6 7 7 6 6 8 8 9 12 14 13 14 13 12 8 11 9 8 11 2 3 5 11 13 9 5 8 11 7 15 20 17 17 15
12 9 10 9 11 9 7 8 6 5 4 5 4 6 4 7 4 5 11 14 12 15 12 10 5 7 5 4 11 1 3 2 1 7 7 9 6 6 10 3 15 18 16 15 14
13 9 8 8 8 8 7 6 5 1 2 3 3 4 5 11 2 9 9 9 12 15 12 12 3 7 1 6 3 9 9 10 8 10 6 13 9 8 4 4 14 14 11 10 9
10 9 8 7 7 6 6 4 1 1 2 2 3 4 8 2 1 9 10 7 8 12 8 4 8 6 4 4 6 7 7 9 5 9 5 6 12 8 2 8 11 12 11 10 7
9 9 7 6 6 5 3 4 3 2 4 4 5 5 6 2 5 3 10 4 8 9 5 2 8 5 6 8 8 7 8 11 9 4 8 8 11 7 2 9 10 10 11 10 9
9 8 7 6 6 5 7 3 3 5 5 5 4 5 8 2 2 1 7 11 4 12 7 4 5 6 6 9 9 9 9 14 13 4 7 7 7 6 4 10 10 10 9 9 8
9 8 8 6 7 11 9 5 6 6 8 6 1 5 5 8 2 4 3 6 9 4 3 6 6 7 11 6 3 5 7 12 8 4 5 5 8 5 6 8 10 10 10 10 8
8 8 8 6 10 11 3 5 6 5 4 14 11 10 10 4 3 5 4 7 6 6 6 6 5 3 6 5 5 6 10 8 6 3 5 9 7 6 4 5 6 9 10 9 9
9 8 6 10 13 6 8 12 0 10 5 4 7 6 4 7 3 2 3 1 2 7 9 8 8 3 5 6 7 3 6 10 5 7 2 10 8 8 5 5 6 5 6 8 10
9 8 10 16 7 5 7 9 14 6 5 6 5 4 5 3 4 3 2 1 3 4 2 6 3 4 7 5 3 6 3 9 12 13 9 8 8 10 8 8 9 10 11 12 14
10 10 17 18 4 6 3 2 7 4 6 7 6 4 4 6 4 3 3 3 2 4 6 4 6 7 6 3 2 4 7 10 8 7 6 11 9 11 9 11 14 13 13 13 13
11 12 16 9 4 8 7 4 4 5 4 7 6 7 8 3 2 3 2 5 3 3 4 5 2 2 4 5 2 11 12 8 4 4 6 2 9 8 11 17 16 16 14 15 14
12 15 17 6 1 5 4 6 5 6 3 7 12 7 8 5 4 2 6 8 6 9 8 7 4 5 4 10 8 8 11 5 6 6 7 2 7 11 3 5 18 19 18 17 16
11 13 12 10 2 5 5 5 7 3 7 2 6 8 10 5 3 3 8 9 3 5 8 9 7 5 2 4 5 9 7 4 5 6 5 3 7 2 1 6 13 18 18 18 16
14 5 5 9 15 3 6 6 7 5 6 8 8 13 6 5 3 5 2 5 2 2 3 5 4 4 2 2 3 6 7 4 3 0 4 6 5 10 4 9 13 20 19 19 17
8 6 9 9 12 7 7 7 5 3 3 7 13 10 13 10 8 8 8 3 4 1 3 4 4 2 5 2 7 4 8 4 3 4 5 4 7 6 7 11 16 20 20 19 17
7 7 8 11 9 7 9 10 5 5 5 8 8 6 10 9 7 8 7 4 3 4 1 5 3 5 3 6 6 5 5 1 1 2 3 3 1 4 1 9 16 19 20 19 17
7 9 8 9 9 7 11 6 3 4 4 6 4 5 11 10 8 8 9 1 3 3 5 3 2 4 6 3 2 3 3 7 4 5 0 3 4 3 1 3 10 16 17 17 16
9 6 4 6 9 7 5 6 4 5 5 7 7 2 2 7 5 5 5 3 3 5 5 6 4 4 5 6 5 8 7 3 6 1 6 3 2 4 3 5 8 13 14 14 16
9 9 6 7 3 14 12 12 9 2 3 2 4 3 7 4 1 7 7 3 3 2 3 3 3 6 7 1 1 7 11 11 9 4 4 9 9 8 8 8 8 12 14 17 17
6 8 10 10 10 13 15 12 14 5 4 5 3 5 7 5 4 5 5 6 4 4 2 4 5 4 1 1 3 4 9 14 15 13 8 7 11 7 6 9 9 8 12 15 17
6 6 4 14 13 13 11 11 16 7 5 7 7 7 6 6 6 10 9 7 4 6 4 1 3 2 4 2 2 7 10 12 16 15 16 17 18 13 7 5 8 11 14 16 17
2 1 9 3 11 14 10 13 14 10 1 2 6 7 5 4 5 9 7 8 5 5 6 3 6 4 2 1 2 6 16 17 12 13 14 13 12 5 7 9 10 12 14 16 17
Wind_Direction
299 301 300 302 304 300 300 296 295 299 301 300 304 310 313 318 307 254 245 240 194 127 192 146 166 184 191 182 208 243 232 208 137 117 125 133 131 138 289 264 180 105 106 131 150
293 299 302 305 307 303 300 295 294 296 295 293 306 307 317 324 291 257 239 170 190 166 168 170 168 176 185 186 191 239 247 170 135 131 134 14 232 157 201 188 163 93 118 139 149
286 300 301 305 304 299 300 295 295 300 292 304 304 309 326 307 272 245 117 180 191 200 185 179 165 190 197 187 185 184 266 126 154 127 142 157 209 197 196 184 163 151 142 146 152
286 295 297 303 302 297 299 296 300 299 299 300 310 313 316 273 329 39 318 168 179 190 194 172 176 185 192 193 196 232 209 96 172 181 170 191 169 184 197 41 118 144 144 149 156
283 293 297 302 298 296 297 292 295 299 303 305 308 321 284 242 259 53 114 136 163 183 192 191 187 189 195 196 186 238 204 188 172 188 192 152 162 124 53 80 118 139 152 150 157
282 288 290 296 296 293 288 287 297 291 295 297 320 298 261 257 70 125 130 150 174 185 207 211 223 215 205 196 224 140 198 107 160 117 125 180 113 166 57 105 129 147 155 156 161
279 283 287 289 289 287 286 286 287 268 269 281 295 281 254 258 56 151 159 182 192 202 195 211 220 212 279 170 169 145 128 128 134 160 127 134 124 57 11 164 140 153 147 155 153
277 279 285 286 286 288 285 297 100 217 242 245 266 250 260 205 252 220 232 215 200 212 242 250 219 266 279 112 139 173 185 145 94 168 147 237 118 62 36 160 159 153 151 148 141
271 275 281 282 270 263 246 93 90 238 244 224 207 263 260 241 235 238 198 164 148 182 202 81 174 219 180 209 164 187 176 140 130 28 154 260 124 60 134 167 158 163 161 155 147
267 270 273 264 244 217 121 85 139 215 220 220 248 252 236 68 341 229 175 155 148 145 141 210 194 207 201 198 178 171 140 167 151 88 183 135 102 102 138 172 170 164 167 168 165
263 262 257 246 219 146 133 155 201 197 229 242 58 295 294 333 214 188 166 150 141 207 181 203 211 216 181 212 28 126 139 141 117 98 130 135 133 128 144 171 179 177 177 174 168
252 252 253 224 157 142 223 235 295 351 253 222 253 271 273 286 262 182 206 211 204 187 166 177 144 96 114 140 144 144 157 138 116 122 243 170 131 125 153 158 195 185 186 175 158
237 241 227 153 139 157 229 234 226 348 264 169 205 246 280 198 251 175 253 30 5 145 226 213 108 155 148 133 152 135 197 167 180 158 207 185 174 171 135 150 152 173 156 166 159
215 216 166 136 187 164 232 252 249 236 230 146 202 194 172 233 218 10 20 126 199 140 139 77 101 152 133 136 273 180 202 148 153 184 197 217 217 184 171 158 169 156 153 141 138
195 192 166 184 91 202 39 205 152 203 195 152 156 110 150 207 124 135 37 206 168 154 248 96 152 147 149 77 171 63 167 145 163 205 209 191 255 110 177 191 178 167 159 154 150
181 179 168 232 245 251 297 180 182 229 221 164 172 179 174 162 135 134 160 82 105 102 100 97 81 14 83 62 184 141 136 129 163 210 239 232 255 181 184 214 182 176 172 163 158
178 174 175 190 214 347 220 204 192 219 125 166 175 182 191 160 139 171 169 153 187 159 162 157 111 116 157 119 140 226 183 178 222 207 250 87 250 264 215 202 186 179 171 167 163
172 166 210 233 244 318 235 197 201 198 195 111 182 171 194 166 121 140 169 164 155 248 174 204 174 169 137 277 204 199 241 229 239 222 262 172 246 255 102 178 191 179 173 169 171
142 165 243 228 222 272 249 200 193 204 172 176 168 189 162 153 208 181 195 160 133 290 214 179 123 128 58 171 252 154 219 41 144 56 270 255 233 244 187 197 194 182 176 179 179
158 179 223 178 165 184 233 213 206 199 190 193 185 213 190 177 187 212 194 143 143 224 310 160 152 175 135 182 68 293 122 182 210 232 241 194 273 263 181 185 189 186 187 187 182
164 202 119 146 161 197 207 200 203 205 210 192 190 168 203 177 203 192 183 144 196 132 203 168 242 147 207 215 195 153 185 71 61 302 284 295 237 49 309 192 195 196 195 190 185
178 205 144 173 178 204 198 194 183 171 164 205 228 165 184 180 181 192 192 291 138 177 187 132 149 177 194 114 316 282 204 197 240 173 110 327 292 143 177 242 207 203 199 195 191
178 150 137 232 180 182 155 175 223 172 183 183 183 190 170 169 179 188 177 85 176 204 177 172 194 163 167 174 188 228 191 182 112 128 203 187 259 168 201 220 218 219 194 197 191
174 170 147 202 263 179 177 187 196 186 177 169 138 133 142 156 82 167 159 141 133 147 42 197 189 245 236 31 268 194 195 197 205 199 199 237 265 203 221 225 204 213 197 196 191
212 181 166 175 192 186 185 175 192 163 206 193 145 202 166 148 155 171 160 147 142 152 148 233 232 211 201 108 217 257 221 200 212 228 225 266 249 270 249 236 228 200 194 196 192
186 169 173 155 161 170 179 187 194 161 190 180 204 151 173 172 197 183 169 190 175 165 176 144 188 189 212 200 259 257 239 228 228 244 255 264 268 273 252 255 203 198 196 200 199
148 145 176 152 173 180 184 178 200 153 102 6 149 137 143 82 62 60 78 75 100 173 155 151 147 165 232 6 270 280 238 223 222 226 240 248 261 159 199 223 220 209 206 207 205